sat.trackr.live / text

‹ back to catalog

STARLINK-5718

NORAD 55620 · 2023-020BD

PAYLOAD ACTIVE UNKNOWN

§ Identity

Operator
Country
US
Launch date
2023-02-12
Launch site
AFETR
Launch vehicle
Mass (kg)
RCS (m²)

Purposes: comms

External: N2YO · Heavens-Above · Gunter

§ Orbital elements

Epoch: 2026-09-20T21:27:16.467840Z

Period
94.27 min
Inclination
43.0036°
Eccentricity
0.0001579
Mean motion
15.27577245 rev/d
Perigee alt
482.0 km
Apogee alt
484.1 km
Semi-major
6,861.2 km
B*
-4.3669e-5
RAAN
331.7887°
Arg perigee
269.3543°
Mean anomaly
90.7128°
Rev number
19,889

§ Raw data

STARLINK-57181 55620U 23020BD  26263.89394060 -.00001464  00000+0 -43669-4 0  99912 55620  43.0036 331.7887 0001579 269.3543  90.7128 15.27577245198894

JSON: /api/v1/satellites/55620 · /tle

For live sub-satellite position, see the globe view (requires WebGL).

§ Visibility from observer

Set your observer location to see the next 7 days of passes ≥ 10°. The values pass through the URL so the page stays shareable.

No JS? Fill the form by hand. The geolocation button needs JavaScript.